Regional Weather Roundup
Issued by NWS

Home | Current Version | Previous Version | Text Only | Print | Product List | Glossary On
Versions: 1 2 3 4 5 6 7 8 9 10 11 12 13 14 15 16 17 18 19 20 21 22 23 24 25 26 27 28 29 30 31 32 33 34 35 36 37 38 39 40 41 42 43 44 45 46 47 48 49 50
000
ASUS42 KKEY 250610
RWRKEY

FLORIDA REGIONAL WEATHER ROUNDUP FOR THE FLORIDA KEYS
NATIONAL WEATHER SERVICE KEY WEST FLORIDA
100 AM EST SAT NOV 25 2017

...SOUTH FLORIDA AND THE KEYS...

CITY           SKY/WX    TMP DP  RH WIND       PRES   REMARKS
FORT MYERS     CLEAR     64  63  96 N6        29.97F
SW REGIONAL AP CLEAR     63  63 100 CALM      29.97F
NAPLES         CLEAR     64  62  93 CALM      29.97F
MIAMI          PTCLDY    69  65  86 VRB5      29.97S
WEST KENDALL   CLEAR     62  62 100 NW6       29.97F
HOMESTEAD      CLEAR     66  66 100 NW7       29.96F
MARATHON       CLEAR     73  63  70 NW12      29.96F
KEY WEST INTL  PTCLDY    73  65  75 N5        29.98F

...INTERNATIONAL WEATHER...

CITY           SKY/WX    TMP DP  RH WIND       PRES   REMARKS
NASSAU BAHAMAS NOT AVBL
CANCUN MEXICO  CLEAR     63  63 100 W2        30.01F
COZUMEL MEXICO CLEAR     73  63  68 N5        29.99F

ADJACENT COASTAL WATERS...

STATION/POSITION TIME  SKY/WX   TEMP    WIND        PRES    WAVE
                                AIR SEA DIR/SP/G            HT/PER
                 (UTC)          (F)     (DEG/KT/KT) (MB)    (FT/S)
PULASKI SHOAL LI 0600            73      60/  8/  9 1015.4F
SAND KEY         0550            73                 1015.9F
LONG KEY         NOT AVBL
MOLASSES REEF    0600            71 80  360/ 13/ 14 1015.1R
FOWEY ROCKS      0600            69 78  330/ 11/ 13 1015.3S
Buoy 42097       0530               78                N/A     3/ 6

$$



USA.gov is the U.S. government's official web portal to all federal, state and local government web resources and services.